Forside
METAR-TAF:

METAR-TAF

Lufthavne :

Silver Bay Municipal Airport

Silver Bay, Minnesota, USA

Breddekreds: 47-12N, længdekreds: 091-24W, højde: 331 m

Aktuelle vejr

Denne rapport blev lavet for 23 minutter siden, kl. 12:35 UTC
Vind 4 kt fra øst
Temperatur -2°C
Fugtighed 69%
Tryk 1018 hPa
Sigt: 16.1 km
Spredte skyer i en højde af 3100 ft
Overskyet i en højde af 9000 ft

METAR: KBFW 241235Z AUTO 08004KT 10SM SCT031 OVC090 M02/M07 A3007 RMK AO2

Tid: 06:58 (12:58 UTC)


TAF: fraværende

Vejrobservationer og prognoser fra mere end 4000 lufthavne (METAR og TAF).

De gule og røde prikker repræsenterer de meteorologiske stationer.

Flyt musen over at se navnet på stationen.

Så klik over at se vejr observationer og prognoser.

At skifte det kort: Klik på de grønne knapper med et sort kors for at zoome ind; på den grønne knap med en bindestreg for at zoome ud; eller på de grønne pile for tilstødende kort.


METAR-TAF: